When you browse on this site, cookies collect data to enhance your experience and personalize the content and advertising you see.
Visit our Privacy Policy to learn more. By continuing to use the site, you agree to this use of cookies and data.
  • In United Kingdom
  • List of Countries
  • For 7 days
  • Water Temperature
  • Satellite Maps
  • Weather Map
  • Weather Widgets
  • user-avatar
    Login

    Hourly Weather Vasyl'kivtsi

    Today, 20 June, Thursday

    Time Temperature Precipitation Wind Pressure Humidity
    00:00 +19°C° 0 mm 2 mps 740 mmHg 88%
    01:00 +19°C° 0 mm 2 mps 740 mmHg 89%
    02:00 +19°C° 0 mm 2 mps 740 mmHg 90%
    03:00 +19°C° 0 mm 2 mps 740 mmHg 91%
    04:00 +19°C° 0 mm 2 mps 740 mmHg 92%
    05:00 +19°C° 0 mm 2 mps 740 mmHg 93%
    06:00 +20°C° 0 mm 2 mps 740 mmHg 89%
    07:00 +23°C° 0 mm 2 mps 740 mmHg 85%
    08:00 +24°C° 0 mm 2 mps 740 mmHg 82%
    09:00 +25°C° 0 mm 2 mps 740 mmHg 77%
    10:00 +26°C° 0 mm 2 mps 740 mmHg 72%
    11:00 +27°C° 0 mm 2 mps 740 mmHg 68%
    12:00 +27°C° 0 mm 3 mps 740 mmHg 67%
    13:00 +28°C° 0 mm 3 mps 740 mmHg 66%
    14:00 +28°C° 0 mm 3 mps 740 mmHg 65%
    15:00 +28°C° 0 mm 3 mps 739 mmHg 66%
    16:00 +28°C° 0 mm 3 mps 739 mmHg 68%
    17:00 +28°C° 0 mm 3 mps 739 mmHg 69%
    18:00 +26°C° 0 mm 3 mps 739 mmHg 75%
    19:00 +25°C° 0 mm 3 mps 739 mmHg 81%
    20:00 +22°C° 0 mm 3 mps 739 mmHg 87%
    21:00 +22°C° 0.1 mm 3 mps 739 mmHg 87%
    22:00 +21°C° 0.1 mm 2 mps 740 mmHg 88%
    23:00 +20°C° 0.1 mm 2 mps 740 mmHg 88%

    Tomorrow, 21 June, Friday

    Time Temperature Precipitation Wind Pressure Humidity
    00:00 +20°C° 0 mm 2 mps 740 mmHg 89%
    01:00 +20°C° 0 mm 2 mps 740 mmHg 89%
    02:00 +19°C° 0 mm 2 mps 740 mmHg 90%
    03:00 +19°C° 0 mm 2 mps 740 mmHg 90%
    04:00 +19°C° 0 mm 2 mps 740 mmHg 90%
    05:00 +20°C° 0 mm 1 mps 740 mmHg 90%
    06:00 +21°C° 0 mm 2 mps 740 mmHg 85%
    07:00 +23°C° 0 mm 2 mps 740 mmHg 81%
    08:00 +25°C° 0 mm 2 mps 741 mmHg 77%
    09:00 +26°C° 0.2 mm 3 mps 741 mmHg 73%
    10:00 +27°C° 0.2 mm 3 mps 741 mmHg 68%
    11:00 +29°C° 0.2 mm 3 mps 741 mmHg 64%
    12:00 +29°C° 0.3 mm 3 mps 741 mmHg 65%
    13:00 +29°C° 0.3 mm 4 mps 740 mmHg 65%
    14:00 +29°C° 0.3 mm 4 mps 740 mmHg 65%
    15:00 +29°C° 0.4 mm 3 mps 740 mmHg 67%
    16:00 +28°C° 0.4 mm 3 mps 740 mmHg 69%
    17:00 +28°C° 0.4 mm 2 mps 740 mmHg 71%
    18:00 +27°C° 0.3 mm 2 mps 740 mmHg 75%
    19:00 +25°C° 0.3 mm 2 mps 740 mmHg 80%
    20:00 +24°C° 0.3 mm 2 mps 740 mmHg 84%
    21:00 +23°C° 0 mm 2 mps 740 mmHg 84%
    22:00 +21°C° 0 mm 2 mps 740 mmHg 85%
    23:00 +21°C° 0 mm 2 mps 740 mmHg 85%

    Day after tomorrow, 22 June, Saturday

    Time Temperature Precipitation Wind Pressure Humidity
    00:00 +20°C° 0 mm 2 mps 740 mmHg 84%
    01:00 +19°C° 0 mm 2 mps 740 mmHg 82%
    02:00 +19°C° 0 mm 2 mps 740 mmHg 81%
    03:00 +19°C° 0 mm 2 mps 740 mmHg 82%
    04:00 +19°C° 0 mm 2 mps 740 mmHg 82%
    05:00 +19°C° 0 mm 2 mps 740 mmHg 83%
    06:00 +21°C° 0 mm 2 mps 741 mmHg 79%
    07:00 +23°C° 0 mm 2 mps 741 mmHg 74%
    08:00 +25°C° 0 mm 2 mps 741 mmHg 70%
    09:00 +27°C° 0 mm 2 mps 741 mmHg 66%
    10:00 +28°C° 0 mm 2 mps 741 mmHg 63%
    11:00 +29°C° 0 mm 3 mps 741 mmHg 59%
    12:00 +30°C° 0 mm 3 mps 741 mmHg 57%
    13:00 +30°C° 0 mm 3 mps 741 mmHg 56%
    14:00 +31°C° 0 mm 3 mps 741 mmHg 54%
    15:00 +30°C° 0.2 mm 2 mps 741 mmHg 57%
    16:00 +30°C° 0.2 mm 2 mps 740 mmHg 60%
    17:00 +30°C° 0.2 mm 2 mps 740 mmHg 63%
    18:00 +28°C° 0.1 mm 1 mps 740 mmHg 66%
    19:00 +26°C° 0.1 mm 1 mps 740 mmHg 70%
    20:00 +24°C° 0.1 mm 1 mps 740 mmHg 73%
    21:00 +24°C° 0 mm 1 mps 740 mmHg 75%
    22:00 +23°C° 0 mm 1 mps 741 mmHg 76%
    23:00 +22°C° 0 mm 1 mps 741 mmHg 78%

    23 June, Sunday

    Time Temperature Precipitation Wind Pressure Humidity
    00:00 +22°C° 0 mm 1 mps 740 mmHg 79%
    01:00 +21°C° 0 mm 1 mps 740 mmHg 81%
    02:00 +20°C° 0 mm 2 mps 740 mmHg 82%
    03:00 +20°C° 0 mm 2 mps 740 mmHg 83%
    04:00 +20°C° 0 mm 2 mps 740 mmHg 84%
    05:00 +20°C° 0 mm 2 mps 740 mmHg 85%
    06:00 +21°C° 0 mm 2 mps 741 mmHg 81%
    07:00 +24°C° 0 mm 2 mps 741 mmHg 76%
    08:00 +25°C° 0 mm 2 mps 741 mmHg 72%
    09:00 +26°C° 0 mm 3 mps 741 mmHg 68%
    10:00 +27°C° 0 mm 3 mps 741 mmHg 65%
    11:00 +28°C° 0 mm 3 mps 741 mmHg 61%
    12:00 +29°C° 0.1 mm 3 mps 741 mmHg 59%
    13:00 +30°C° 0.1 mm 3 mps 741 mmHg 57%
    14:00 +30°C° 0.1 mm 3 mps 741 mmHg 55%
    15:00 +30°C° 0.7 mm 2 mps 740 mmHg 59%
    16:00 +29°C° 0.7 mm 2 mps 740 mmHg 63%
    17:00 +28°C° 0.7 mm 2 mps 740 mmHg 67%
    18:00 +27°C° 0.2 mm 2 mps 740 mmHg 71%
    19:00 +25°C° 0.2 mm 2 mps 740 mmHg 74%
    20:00 +24°C° 0.2 mm 1 mps 740 mmHg 77%
    21:00 +23°C° 0.1 mm 1 mps 741 mmHg 79%
    22:00 +21°C° 0.1 mm 2 mps 741 mmHg 81%
    23:00 +20°C° 0.1 mm 2 mps 741 mmHg 83%

    24 June, Monday

    Time Temperature Precipitation Wind Pressure Humidity
    00:00 +20°C° 0 mm 2 mps 741 mmHg 84%
    01:00 +19°C° 0 mm 2 mps 741 mmHg 85%
    02:00 +19°C° 0 mm 2 mps 741 mmHg 86%
    03:00 +19°C° 0 mm 2 mps 741 mmHg 86%
    04:00 +20°C° 0 mm 1 mps 741 mmHg 86%
    05:00 +20°C° 0 mm 1 mps 741 mmHg 87%
    06:00 +22°C° 0 mm 1 mps 741 mmHg 84%
    07:00 +23°C° 0 mm 2 mps 742 mmHg 81%
    08:00 +25°C° 0 mm 3 mps 742 mmHg 78%
    09:00 +26°C° 0.2 mm 3 mps 742 mmHg 74%
    10:00 +27°C° 0.2 mm 3 mps 742 mmHg 69%
    11:00 +28°C° 0.2 mm 3 mps 742 mmHg 65%
    12:00 +28°C° 1.6 mm 2 mps 742 mmHg 65%
    13:00 +28°C° 1.6 mm 2 mps 742 mmHg 65%
    14:00 +29°C° 1.6 mm 2 mps 742 mmHg 64%
    15:00 +28°C° 2.4 mm 2 mps 742 mmHg 68%
    16:00 +28°C° 2.4 mm 2 mps 742 mmHg 72%
    17:00 +27°C° 2.4 mm 2 mps 742 mmHg 76%
    18:00 +26°C° 0.2 mm 3 mps 742 mmHg 80%
    19:00 +25°C° 0.2 mm 3 mps 742 mmHg 84%
    20:00 +22°C° 0.2 mm 4 mps 742 mmHg 88%
    21:00 +22°C° 0.1 mm 4 mps 742 mmHg 90%
    22:00 +21°C° 0.1 mm 4 mps 742 mmHg 91%
    23:00 +20°C° 0.1 mm 4 mps 742 mmHg 93%

    25 June, Tuesday

    Time Temperature Precipitation Wind Pressure Humidity
    00:00 +20°C° 0 mm 4 mps 742 mmHg 94%
    01:00 +20°C° 0 mm 4 mps 742 mmHg 96%
    02:00 +19°C° 0 mm 4 mps 743 mmHg 97%
    03:00 +19°C° 0 mm 4 mps 743 mmHg 97%
    04:00 +19°C° 0 mm 5 mps 743 mmHg 97%
    05:00 +19°C° 0 mm 5 mps 743 mmHg 97%
    06:00 +19°C° 0 mm 5 mps 743 mmHg 94%
    07:00 +20°C° 0 mm 5 mps 743 mmHg 91%
    08:00 +20°C° 0 mm 5 mps 744 mmHg 89%
    09:00 +21°C° 0 mm 6 mps 744 mmHg 84%
    10:00 +22°C° 0 mm 6 mps 744 mmHg 79%
    11:00 +23°C° 0 mm 6 mps 744 mmHg 75%
    12:00 +24°C° 0 mm 6 mps 744 mmHg 72%
    13:00 +24°C° 0 mm 6 mps 744 mmHg 69%
    14:00 +26°C° 0 mm 6 mps 744 mmHg 66%
    15:00 +26°C° 0 mm 6 mps 744 mmHg 67%
    16:00 +25°C° 0 mm 5 mps 744 mmHg 69%
    17:00 +25°C° 0 mm 5 mps 744 mmHg 70%
    18:00 +23°C° 0 mm 4 mps 744 mmHg 74%
    19:00 +21°C° 0 mm 4 mps 744 mmHg 78%
    20:00 +20°C° 0 mm 4 mps 744 mmHg 82%
    21:00 +19°C° 0 mm 4 mps 745 mmHg 81%
    22:00 +18°C° 0 mm 4 mps 745 mmHg 80%
    23:00 +17°C° 0 mm 4 mps 745 mmHg 79%
    Show more